Weather in Pody

Russia / Kursk Oblast     51°49′47″N   34°43′21″E
temp.,
°C
wind,
m/s
gust,
m/s
humid.,
%
clouds,
%
prec.,
mm/h
press.,
hPa
HPBL,
m
23 january, sat
sat2300:00+1ssw51096100 0.0 1013357
03:00+1ssw61196100 0.0 1013383
06:00−2s4109432 0.0 1012261
09:00+1ssw61298100 0.0 1013427
12:00+1s49100100 0.0 1014252
15:00+2s411100100 0.0 1013312
18:00+1s3799100 0.0 1013187
21:00+1s3899100 0.0 1013204
24 january, sun
sun2400:00+2sse41099100 0.0 1012264
03:00+2sse4999100 0.0 1012220
06:00+2sse51099100 0.0 1011244
09:00+2sse511100100 0.0 1012284
12:00+2sse512100100 0.0 1011427
15:00+3sse61492100 0.0 1010447
18:00+3sse61494100 0.0 1012370
21:00+3sse71687100 0.1 1011523
25 january, mon
mon2500:00+2sse71580100 0.0 1011459
03:00+2sse61394100 0.0 1009371
06:000se61387100 0.3 1009383
09:00+2se51097100 0.1 1009284
12:00+3sse51097100 0.0 1009338
15:00+2se61295100 0.7 1007403
18:00+3se71495100 0.0 1006458
21:00+3se71595100 0.1 1007392
26 january, tue
tue2600:00+4ese81888100 2.4 1005491
03:00+2se91988100 1.3 1001689
06:00+2se71397100 1.1 999410
09:00+3se81792100 2.9 999742
12:00+5sse8167774 0.2 9991410
15:00+2wsw61085100 0.2 1005804
18:00+1s7147694 0.2 9961057
21:000s4790100 0.0 1010242
27 january, wed
wed2700:00−1ssw111892100 0.6 9981151
03:00−1ssw111892100 1.3 10001122
06:000ne3598100 1.2 1008232
09:00−1ssw101688100 0.9 10031072
12:00−1sw101591100 0.3 10051110
15:00+1ese310100100 7.9 1001414
18:00+3ese41496100 1.5 1000519
21:00−2sw6119093 0.1 1009581